JBU487 KBOS-KLAX

Flight info

Callsign JBU487
Flight time N/A
Altitude 32000
Route HYLND7 HYLND HANAA Q816 HOCKE GRB ODI/N0460F340 FSD J114 DVV J60 HVE PROMT Q88 HAKMN ANJLL4
Aircraft A321/M-SDE3FGHIRWY/LB1

Departure

Time 2026-05-06 18:32
Airport Boston Logan International Airport (KBOS)

Arrival

Time N/A
Airport Los Angeles International Airport (KLAX)
Time Latitude Longitude Altitude Speed Heading
2026-05-06 18:17 42.36639 -71.01378 30 ft 0 kts 247°
2026-05-06 18:22 42.36644 -71.01363 30 ft 1 kts 247°
2026-05-06 18:22 42.36648 -71.01350 30 ft 2 kts 228°
2026-05-06 18:22 42.36661 -71.01339 30 ft 2 kts 192°
2026-05-06 18:23 42.36677 -71.01340 30 ft 2 kts 158°
2026-05-06 18:23 42.36689 -71.01353 30 ft 2 kts 123°
2026-05-06 18:23 42.36695 -71.01372 30 ft 2 kts 89°
2026-05-06 18:23 42.36694 -71.01382 30 ft 1 kts 74°
2026-05-06 18:24 42.36693 -71.01387 30 ft 0 kts 79°
2026-05-06 18:26 42.36696 -71.01366 30 ft 6 kts 79°
2026-05-06 18:27 42.36705 -71.01302 30 ft 7 kts 76°
2026-05-06 18:27 42.36739 -71.01250 30 ft 8 kts
2026-05-06 18:27 42.36798 -71.01279 30 ft 9 kts 333°
2026-05-06 18:27 42.36860 -71.01260 30 ft 10 kts 40°
2026-05-06 18:28 42.36919 -71.01190 30 ft 11 kts 42°
2026-05-06 18:28 42.36983 -71.01114 30 ft 12 kts 39°
2026-05-06 18:28 42.37062 -71.01057 30 ft 13 kts 24°
2026-05-06 18:28 42.37148 -71.01002 30 ft 13 kts 26°
2026-05-06 18:29 42.37236 -71.00942 30 ft 14 kts 25°
2026-05-06 18:29 42.37331 -71.00888 30 ft 14 kts 20°
2026-05-06 18:29 42.37431 -71.00839 30 ft 15 kts 20°
2026-05-06 18:29 42.37533 -71.00790 30 ft 15 kts 19°
2026-05-06 18:30 42.37637 -71.00742 30 ft 15 kts 19°
2026-05-06 18:30 42.37740 -71.00692 30 ft 15 kts 20°
2026-05-06 18:30 42.37820 -71.00646 30 ft 8 kts 39°
2026-05-06 18:30 42.37835 -71.00577 30 ft 8 kts 101°
2026-05-06 18:31 42.37816 -71.00505 30 ft 8 kts 121°
2026-05-06 18:31 42.37761 -71.00486 30 ft 9 kts 194°
2026-05-06 18:31 42.37619 -71.00552 30 ft 46 kts 199°
2026-05-06 18:31 42.37067 -71.00819 30 ft 117 kts 200°
2026-05-06 18:32 42.36097 -71.01289 102 ft 168 kts 199°
2026-05-06 18:32 42.34967 -71.01822 850 ft 167 kts 194°
2026-05-06 18:32 42.33839 -71.01588 1696 ft 175 kts 155°
2026-05-06 18:32 42.32955 -71.00287 2279 ft 195 kts 134°
2026-05-06 18:33 42.32201 -70.98688 2569 ft 205 kts 135°
2026-05-06 18:33 42.31364 -70.97041 2899 ft 215 kts 131°
2026-05-06 18:33 42.31079 -70.94900 3148 ft 254 kts 89°
2026-05-06 18:33 42.31471 -70.92481 3391 ft 271 kts 84°
2026-05-06 18:34 42.31926 -70.89902 3649 ft 287 kts 83°
2026-05-06 18:34 42.32416 -70.87225 3950 ft 300 kts 82°
2026-05-06 18:34 42.32898 -70.84409 4413 ft 306 kts 84°
2026-05-06 18:34 42.33357 -70.81551 5109 ft 305 kts 84°
2026-05-06 18:35 42.33795 -70.78666 5652 ft 308 kts 86°
2026-05-06 18:35 42.34406 -70.75855 6237 ft 319 kts 62°
2026-05-06 18:35 42.35948 -70.73683 6777 ft 324 kts 28°
2026-05-06 18:35 42.38052 -70.72759 7237 ft 319 kts
2026-05-06 18:36 42.40292 -70.72382 7635 ft 328 kts
2026-05-06 18:36 42.42593 -70.71792 8211 ft 332 kts
2026-05-06 18:36 42.44876 -70.71324 8720 ft 326 kts 349°
2026-05-06 18:36 42.46984 -70.72089 9169 ft 308 kts 324°
2026-05-06 18:37 42.48902 -70.73431 9646 ft 309 kts 321°
2026-05-06 18:37 42.50813 -70.74805 10135 ft 312 kts 322°
2026-05-06 18:37 42.52719 -70.76308 10431 ft 313 kts 312°
2026-05-06 18:37 42.54285 -70.78353 10663 ft 310 kts 297°
2026-05-06 18:38 42.55520 -70.80776 10892 ft 316 kts 292°
2026-05-06 18:38 42.56747 -70.83356 11124 ft 327 kts 293°
2026-05-06 18:38 42.57988 -70.85961 11559 ft 331 kts 294°
2026-05-06 18:38 42.59258 -70.88592 12106 ft 331 kts 294°
2026-05-06 18:39 42.60539 -70.91233 12624 ft 332 kts 294°
2026-05-06 18:39 42.61811 -70.93855 13104 ft 334 kts 294°
2026-05-06 18:39 42.63114 -70.96537 13572 ft 335 kts 295°
2026-05-06 18:40 42.65715 -71.01894 14493 ft 339 kts 295°
2026-05-06 18:40 42.67026 -71.04595 14923 ft 341 kts 295°
2026-05-06 18:40 42.68333 -71.07292 15352 ft 343 kts 295°
2026-05-06 18:40 42.69655 -71.10019 15766 ft 345 kts 295°
2026-05-06 18:41 42.70984 -71.12763 16196 ft 346 kts 295°
2026-05-06 18:41 42.72319 -71.15529 16640 ft 347 kts 295°
2026-05-06 18:41 42.73643 -71.18273 17030 ft 349 kts 295°
2026-05-06 18:41 42.74984 -71.21046 17438 ft 351 kts 295°
2026-05-06 18:42 42.76339 -71.23859 17828 ft 352 kts 295°
2026-05-06 18:42 42.77530 -71.26743 18204 ft 348 kts 288°
2026-05-06 18:42 42.78464 -71.29818 18535 ft 347 kts 282°